Data supplied by UK-AIR on 29/6/2016
All Data GMT hour ending 
Status: R =Ratified P=Provisional,P*=As supplied
,,Canterbury,,,,,,,,,,,,,,,,,,,,,,,
Date,time,"Nitric oxide",status,unit,"Nitrogen dioxide",status,unit,"Nitrogen oxides as nitrogen dioxide",status,unit,"Ozone",status,unit
 
01-01-2015,01:00,1.43731,R,ugm-3,2.63989,R,ugm-3,4.84373,R,ugm-3,67.32161,R,ugm-3
01-01-2015,02:00,1.15251,R,ugm-3,3.30719,R,ugm-3,5.07434,R,ugm-3,65.59201,R,ugm-3
01-01-2015,03:00,1.30093,R,ugm-3,2.50298,R,ugm-3,4.49772,R,ugm-3,64.61079,R,ugm-3
01-01-2015,04:00,1.11477,R,ugm-3,2.84580,R,ugm-3,4.55510,R,ugm-3,61.81681,R,ugm-3
01-01-2015,05:00,0.92955,R,ugm-3,2.09180,R,ugm-3,3.51709,R,ugm-3,63.06412,R,ugm-3
01-01-2015,06:00,1.00377,R,ugm-3,2.43939,R,ugm-3,3.97848,R,ugm-3,64.36133,R,ugm-3
01-01-2015,07:00,1.33804,R,ugm-3,2.84963,R,ugm-3,4.90126,R,ugm-3,63.16391,R,ugm-3
01-01-2015,08:00,1.37515,R,ugm-3,3.71551,R,ugm-3,5.82404,R,ugm-3,61.86670,R,ugm-3
01-01-2015,09:00,1.22672,R,ugm-3,3.42385,R,ugm-3,5.30480,R,ugm-3,59.97079,R,ugm-3
01-01-2015,10:00,1.00377,R,ugm-3,2.90126,R,ugm-3,4.44035,R,ugm-3,60.91874,R,ugm-3
01-01-2015,11:00,2.04433,R,ugm-3,3.38082,R,ugm-3,6.51541,R,ugm-3,62.41552,R,ugm-3
01-01-2015,12:00,1.07798,R,ugm-3,3.30576,R,ugm-3,4.95863,R,ugm-3,63.11401,R,ugm-3
01-01-2015,13:00,1.11540,R,ugm-3,3.24838,R,ugm-3,4.95863,R,ugm-3,63.36348,R,ugm-3
01-01-2015,14:00,1.33804,R,ugm-3,3.25364,R,ugm-3,5.30528,R,ugm-3,64.66068,R,ugm-3
01-01-2015,15:00,1.44967,R,ugm-3,3.54338,R,ugm-3,5.76619,R,ugm-3,64.36133,R,ugm-3
01-01-2015,16:00,1.30093,R,ugm-3,2.56036,R,ugm-3,4.55510,R,ugm-3,64.31143,R,ugm-3
01-01-2015,17:00,1.04056,R,ugm-3,3.19053,R,ugm-3,4.78603,R,ugm-3,64.21165,R,ugm-3
01-01-2015,18:00,1.11509,R,ugm-3,2.55701,R,ugm-3,4.26679,R,ugm-3,66.20735,R,ugm-3
01-01-2015,19:00,1.00314,R,ugm-3,3.07530,R,ugm-3,4.61343,R,ugm-3,65.65853,R,ugm-3
01-01-2015,20:00,1.26383,R,ugm-3,2.09849,R,ugm-3,4.03633,R,ugm-3,65.90799,R,ugm-3
01-01-2015,21:00,0.89213,R,ugm-3,2.89935,R,ugm-3,4.26727,R,ugm-3,65.65853,R,ugm-3
01-01-2015,22:00,0.92955,R,ugm-3,2.66889,R,ugm-3,4.09418,R,ugm-3,67.70412,R,ugm-3
01-01-2015,23:00,0.70597,R,ugm-3,3.01171,R,ugm-3,4.09418,R,ugm-3,66.20735,R,ugm-3
01-01-2015,24:00,0.74308,R,ugm-3,2.43557,R,ugm-3,3.57494,R,ugm-3,66.20735,R,ugm-3
02-01-2015,01:00,0.69392,R,ugm-3,1.85959,R,ugm-3,2.92358,R,ugm-3,66.65638,R,ugm-3
02-01-2015,02:00,1.07767,R,ugm-3,1.40569,R,ugm-3,3.05809,R,ugm-3,68.51903,R,ugm-3
02-01-2015,03:00,1.26414,R,ugm-3,1.58164,R,ugm-3,3.51996,R,ugm-3,67.20520,R,ugm-3
02-01-2015,04:00,0.70628,R,ugm-3,1.80253,R,ugm-3,2.88548,R,ugm-3,68.75187,R,ugm-3
02-01-2015,05:00,1.70974,R,ugm-3,1.53383,R,ugm-3,4.15538,R,ugm-3,67.40477,R,ugm-3
02-01-2015,06:00,1.15219,R,ugm-3,3.02366,R,ugm-3,4.79033,R,ugm-3,65.10971,R,ugm-3
02-01-2015,07:00,1.07767,R,ugm-3,4.75304,R,ugm-3,6.40544,R,ugm-3,68.90154,R,ugm-3
02-01-2015,08:00,1.59842,R,ugm-3,6.49389,R,ugm-3,8.94476,R,ugm-3,69.25079,R,ugm-3
02-01-2015,09:00,2.34181,R,ugm-3,12.10660,R,ugm-3,15.69732,R,ugm-3,64.11186,R,ugm-3
02-01-2015,10:00,4.79493,R,ugm-3,22.65691,R,ugm-3,30.00904,R,ugm-3,54.23315,R,ugm-3
02-01-2015,11:00,3.93991,R,ugm-3,14.61915,R,ugm-3,20.66026,R,ugm-3,60.61939,R,ugm-3
02-01-2015,12:00,4.23708,R,ugm-3,13.06668,R,ugm-3,19.56344,R,ugm-3,62.26584,R,ugm-3
02-01-2015,13:00,4.38613,R,ugm-3,12.20318,R,ugm-3,18.92849,R,ugm-3,63.81251,R,ugm-3
02-01-2015,14:00,4.31129,R,ugm-3,13.41475,R,ugm-3,20.02531,R,ugm-3,62.66498,R,ugm-3
02-01-2015,15:00,3.56821,R,ugm-3,16.22756,R,ugm-3,21.69875,R,ugm-3,59.57165,R,ugm-3
02-01-2015,16:00,3.12230,R,ugm-3,22.10468,R,ugm-3,26.89214,R,ugm-3,53.63444,R,ugm-3
02-01-2015,17:00,3.60532,R,ugm-3,34.81133,R,ugm-3,40.33941,R,ugm-3,38.51701,R,ugm-3
02-01-2015,18:00,12.56312,R,ugm-3,46.35278,R,ugm-3,65.61596,R,ugm-3,20.15657,R,ugm-3
02-01-2015,19:00,17.20962,R,ugm-3,44.94136,R,ugm-3,71.32908,R,ugm-3,22.10238,R,ugm-3
02-01-2015,20:00,3.82859,R,ugm-3,30.60191,R,ugm-3,36.47233,R,ugm-3,33.47787,R,ugm-3
02-01-2015,21:00,3.71695,R,ugm-3,39.02552,R,ugm-3,44.72477,R,ugm-3,16.46453,R,ugm-3
02-01-2015,22:00,1.70974,R,ugm-3,13.82594,R,ugm-3,16.44750,R,ugm-3,45.30239,R,ugm-3
02-01-2015,23:00,1.97011,R,ugm-3,19.08197,R,ugm-3,22.10276,R,ugm-3,36.67099,R,ugm-3
02-01-2015,24:00,1.48678,R,ugm-3,13.35977,R,ugm-3,15.63947,R,ugm-3,43.20691,R,ugm-3
03-01-2015,01:00,1.04150,R,ugm-3,14.33100,R,ugm-3,15.92794,R,ugm-3,42.04275,R,ugm-3
03-01-2015,02:00,1.52482,R,ugm-3,10.35810,R,ugm-3,12.69613,R,ugm-3,47.16504,R,ugm-3
03-01-2015,03:00,0.70660,R,ugm-3,4.91799,R,ugm-3,6.00143,R,ugm-3,53.48476,R,ugm-3
03-01-2015,04:00,1.15313,R,ugm-3,5.61845,R,ugm-3,7.38655,R,ugm-3,54.88175,R,ugm-3
03-01-2015,05:00,0.85565,R,ugm-3,5.90150,R,ugm-3,7.21347,R,ugm-3,58.57380,R,ugm-3
03-01-2015,06:00,1.19024,R,ugm-3,11.44823,R,ugm-3,13.27323,R,ugm-3,42.50841,R,ugm-3
03-01-2015,07:00,1.07860,R,ugm-3,12.25339,R,ugm-3,13.90722,R,ugm-3,39.96389,R,ugm-3
03-01-2015,08:00,0.89276,R,ugm-3,9.59549,R,ugm-3,10.96436,R,ugm-3,58.17466,R,ugm-3
03-01-2015,09:00,1.48772,R,ugm-3,10.70378,R,ugm-3,12.98492,R,ugm-3,57.82541,R,ugm-3
03-01-2015,10:00,1.67388,R,ugm-3,10.76403,R,ugm-3,13.33060,R,ugm-3,55.18111,R,ugm-3
03-01-2015,11:00,2.04588,R,ugm-3,10.88643,R,ugm-3,14.02341,R,ugm-3,49.44347,R,ugm-3
03-01-2015,12:00,1.86004,R,ugm-3,9.26654,R,ugm-3,12.11856,R,ugm-3,45.95099,R,ugm-3
03-01-2015,13:00,1.59966,R,ugm-3,8.05019,R,ugm-3,10.50297,R,ugm-3,43.05723,R,ugm-3
03-01-2015,14:00,2.49211,R,ugm-3,13.54911,R,ugm-3,17.37028,R,ugm-3,31.43228,R,ugm-3
03-01-2015,15:00,3.08738,R,ugm-3,26.89071,R,ugm-3,31.62462,R,ugm-3,16.71399,R,ugm-3
03-01-2015,16:00,2.26915,R,ugm-3,21.10539,R,ugm-3,24.58471,R,ugm-3,29.48647,R,ugm-3
03-01-2015,17:00,2.26915,R,ugm-3,16.66218,R,ugm-3,20.14149,R,ugm-3,50.34153,R,ugm-3
03-01-2015,18:00,2.15752,R,ugm-3,11.00405,R,ugm-3,14.31219,R,ugm-3,60.76907,R,ugm-3
03-01-2015,19:00,3.31096,R,ugm-3,20.02722,R,ugm-3,25.10395,R,ugm-3,49.04433,R,ugm-3
03-01-2015,20:00,6.21249,R,ugm-3,45.41423,R,ugm-3,54.93991,R,ugm-3,15.76603,R,ugm-3
03-01-2015,21:00,3.45970,R,ugm-3,27.18571,R,ugm-3,32.49051,R,ugm-3,32.97894,R,ugm-3
03-01-2015,22:00,1.52545,R,ugm-3,14.62776,R,ugm-3,16.96674,R,ugm-3,45.25250,R,ugm-3
03-01-2015,23:00,1.26476,R,ugm-3,9.83360,R,ugm-3,11.77287,R,ugm-3,49.54325,R,ugm-3
03-01-2015,24:00,1.48834,R,ugm-3,8.79798,R,ugm-3,11.08007,R,ugm-3,48.94454,R,ugm-3
04-01-2015,01:00,1.28971,R,ugm-3,7.56330,R,ugm-3,9.54083,R,ugm-3,48.69508,R,ugm-3
04-01-2015,02:00,1.45092,R,ugm-3,8.04780,R,ugm-3,10.27252,R,ugm-3,44.57063,R,ugm-3
04-01-2015,03:00,1.41382,R,ugm-3,11.10541,R,ugm-3,13.27323,R,ugm-3,37.21981,R,ugm-3
04-01-2015,04:00,1.48772,R,ugm-3,13.01169,R,ugm-3,15.29283,R,ugm-3,33.17851,R,ugm-3
04-01-2015,05:00,1.48834,R,ugm-3,15.72314,R,ugm-3,18.00523,R,ugm-3,28.48862,R,ugm-3
04-01-2015,06:00,1.63708,R,ugm-3,17.80346,R,ugm-3,20.31362,R,ugm-3,27.54066,R,ugm-3
04-01-2015,07:00,1.63708,R,ugm-3,14.28351,R,ugm-3,16.79366,R,ugm-3,30.73378,R,ugm-3
04-01-2015,08:00,1.56224,R,ugm-3,14.16684,R,ugm-3,16.56225,R,ugm-3,29.28690,R,ugm-3
04-01-2015,09:00,2.30626,R,ugm-3,15.33490,R,ugm-3,18.87112,R,ugm-3,25.44518,R,ugm-3
04-01-2015,10:00,4.87320,R,ugm-3,17.28518,R,ugm-3,24.75731,R,ugm-3,20.50582,R,ugm-3
04-01-2015,11:00,6.84487,R,ugm-3,17.49364,R,ugm-3,27.98896,R,ugm-3,21.75313,R,ugm-3
04-01-2015,12:00,8.40743,R,ugm-3,19.02220,R,ugm-3,31.91341,R,ugm-3,23.29980,R,ugm-3
04-01-2015,13:00,7.44046,R,ugm-3,18.36956,R,ugm-3,29.77810,R,ugm-3,25.09593,R,ugm-3
04-01-2015,14:00,8.77943,R,ugm-3,19.14413,R,ugm-3,32.60573,R,ugm-3,27.29120,R,ugm-3
04-01-2015,15:00,8.66780,R,ugm-3,26.12523,R,ugm-3,39.41567,R,ugm-3,19.90711,R,ugm-3
04-01-2015,16:00,5.58011,R,ugm-3,28.78169,R,ugm-3,37.33774,R,ugm-3,15.36689,R,ugm-3
04-01-2015,17:00,2.75310,R,ugm-3,25.15272,R,ugm-3,29.37409,R,ugm-3,15.06754,R,ugm-3
04-01-2015,18:00,3.23643,R,ugm-3,24.75827,R,ugm-3,29.72073,R,ugm-3,14.26926,R,ugm-3
04-01-2015,19:00,2.38078,R,ugm-3,18.33705,R,ugm-3,21.98753,R,ugm-3,21.10453,R,ugm-3
04-01-2015,20:00,3.19901,R,ugm-3,21.64089,R,ugm-3,26.54598,R,ugm-3,18.85937,R,ugm-3
04-01-2015,21:00,3.05058,R,ugm-3,30.81372,R,ugm-3,35.49122,R,ugm-3,8.48173,R,ugm-3
04-01-2015,22:00,2.00909,R,ugm-3,21.96506,R,ugm-3,25.04562,R,ugm-3,12.62280,R,ugm-3
04-01-2015,23:00,1.37640,R,ugm-3,17.62656,R,ugm-3,19.73700,R,ugm-3,14.01979,R,ugm-3
04-01-2015,24:00,2.34399,R,ugm-3,23.81780,R,ugm-3,27.41186,R,ugm-3,5.53807,R,ugm-3
05-01-2015,01:00,2.77982,R,ugm-3,22.53690,R,ugm-3,26.79923,R,ugm-3,1.92918,R,ugm-3
05-01-2015,02:00,6.70174,R,ugm-3,21.66384,R,ugm-3,31.93971,R,ugm-3,1.33047,R,ugm-3
05-01-2015,03:00,4.65399,R,ugm-3,18.33514,R,ugm-3,25.47115,R,ugm-3,1.89592,R,ugm-3
05-01-2015,04:00,2.94145,R,ugm-3,15.76283,R,ugm-3,20.27298,R,ugm-3,3.89162,R,ugm-3
05-01-2015,05:00,2.45718,R,ugm-3,14.65692,R,ugm-3,18.42455,R,ugm-3,7.43398,R,ugm-3
05-01-2015,06:00,24.94569,R,ugm-3,21.18285,R,ugm-3,59.43237,R,ugm-3,1.89592,R,ugm-3
05-01-2015,07:00,39.46551,R,ugm-3,25.19958,R,ugm-3,85.71251,R,ugm-3,1.99570,R,ugm-3
05-01-2015,08:00,18.98827,R,ugm-3,21.65380,R,ugm-3,50.76875,R,ugm-3,19.20861,R,ugm-3
05-01-2015,09:00,3.49992,R,ugm-3,19.06476,R,ugm-3,24.43123,R,ugm-3,31.23271,R,ugm-3
05-01-2015,10:00,1.74996,R,ugm-3,10.83192,R,ugm-3,13.51516,R,ugm-3,38.76647,R,ugm-3
05-01-2015,11:00,2.41976,R,ugm-3,10.72913,R,ugm-3,14.43938,R,ugm-3,40.56260,R,ugm-3
05-01-2015,12:00,1.78707,R,ugm-3,9.04230,R,ugm-3,11.78243,R,ugm-3,39.91400,R,ugm-3
05-01-2015,13:00,2.56881,R,ugm-3,10.84722,R,ugm-3,14.78602,R,ugm-3,37.56905,R,ugm-3
05-01-2015,14:00,2.38297,R,ugm-3,11.71024,R,ugm-3,15.36407,R,ugm-3,37.71873,R,ugm-3
05-01-2015,15:00,2.23391,R,ugm-3,11.82308,R,ugm-3,15.24836,R,ugm-3,39.81422,R,ugm-3
05-01-2015,16:00,2.71787,R,ugm-3,17.60695,R,ugm-3,21.77429,R,ugm-3,35.42368,R,ugm-3
05-01-2015,17:00,2.94145,R,ugm-3,26.85198,R,ugm-3,31.36213,R,ugm-3,24.19786,R,ugm-3
05-01-2015,18:00,3.09019,R,ugm-3,24.65978,R,ugm-3,29.39799,R,ugm-3,25.09593,R,ugm-3
05-01-2015,19:00,1.82449,R,ugm-3,20.07408,R,ugm-3,22.87159,R,ugm-3,28.53851,R,ugm-3
05-01-2015,20:00,1.93612,R,ugm-3,17.13074,R,ugm-3,20.09942,R,ugm-3,31.88131,R,ugm-3
05-01-2015,21:00,1.86160,R,ugm-3,11.81590,R,ugm-3,14.67031,R,ugm-3,40.16346,R,ugm-3
05-01-2015,22:00,1.19180,R,ugm-3,7.35595,R,ugm-3,9.18335,R,ugm-3,52.78627,R,ugm-3
05-01-2015,23:00,1.48928,R,ugm-3,8.97919,R,ugm-3,11.26271,R,ugm-3,48.39573,R,ugm-3
05-01-2015,24:00,0.78175,R,ugm-3,10.81423,R,ugm-3,12.01289,R,ugm-3,38.06798,R,ugm-3
06-01-2015,01:00,1.09222,R,ugm-3,7.56713,R,ugm-3,9.24184,R,ugm-3,41.11142,R,ugm-3
06-01-2015,02:00,1.71254,R,ugm-3,9.33013,R,ugm-3,11.95599,R,ugm-3,38.18439,R,ugm-3
06-01-2015,03:00,1.11696,R,ugm-3,12.61103,R,ugm-3,14.32367,R,ugm-3,36.32174,R,ugm-3
06-01-2015,04:00,1.97323,R,ugm-3,17.76713,R,ugm-3,20.79270,R,ugm-3,31.03314,R,ugm-3
06-01-2015,05:00,1.11696,R,ugm-3,17.40518,R,ugm-3,19.11783,R,ugm-3,34.32604,R,ugm-3
06-01-2015,06:00,1.41475,R,ugm-3,18.79653,R,ugm-3,20.96578,R,ugm-3,32.33034,R,ugm-3
06-01-2015,07:00,1.89901,R,ugm-3,24.11806,R,ugm-3,27.02984,R,ugm-3,27.09163,R,ugm-3
06-01-2015,08:00,2.45749,R,ugm-3,27.24787,R,ugm-3,31.01597,R,ugm-3,21.65335,R,ugm-3
06-01-2015,09:00,4.69141,R,ugm-3,32.13908,R,ugm-3,39.33248,R,ugm-3,18.16087,R,ugm-3
06-01-2015,10:00,3.31345,R,ugm-3,21.14173,R,ugm-3,26.22229,R,ugm-3,24.19786,R,ugm-3
06-01-2015,11:00,2.49460,R,ugm-3,10.90268,R,ugm-3,14.72768,R,ugm-3,37.16991,R,ugm-3
06-01-2015,12:00,2.45718,R,ugm-3,11.65382,R,ugm-3,15.42144,R,ugm-3,37.21981,R,ugm-3
06-01-2015,13:00,2.15970,R,ugm-3,7.48887,R,ugm-3,10.80037,R,ugm-3,45.00304,R,ugm-3
06-01-2015,14:00,1.11727,R,ugm-3,8.39444,R,ugm-3,10.10756,R,ugm-3,47.59745,R,ugm-3
06-01-2015,15:00,3.49992,R,ugm-3,13.05855,R,ugm-3,18.42503,R,ugm-3,46.00089,R,ugm-3
06-01-2015,16:00,3.90935,R,ugm-3,20.11185,R,ugm-3,26.10610,R,ugm-3,52.33723,R,ugm-3
06-01-2015,17:00,4.91436,R,ugm-3,22.55650,R,ugm-3,30.09175,R,ugm-3,52.68648,R,ugm-3
06-01-2015,18:00,13.10569,R,ugm-3,50.59997,R,ugm-3,70.69508,R,ugm-3,23.94840,R,ugm-3
06-01-2015,19:00,5.65931,R,ugm-3,48.32935,R,ugm-3,57.00684,R,ugm-3,20.40603,R,ugm-3
06-01-2015,20:00,4.80304,R,ugm-3,44.84765,R,ugm-3,52.21221,R,ugm-3,22.25206,R,ugm-3
06-01-2015,21:00,8.86113,R,ugm-3,46.53830,R,ugm-3,60.12518,R,ugm-3,15.81592,R,ugm-3
06-01-2015,22:00,3.72319,R,ugm-3,45.52180,R,ugm-3,51.23062,R,ugm-3,8.53162,R,ugm-3
06-01-2015,23:00,5.36121,R,ugm-3,37.63896,R,ugm-3,45.85936,R,ugm-3,13.42108,R,ugm-3
06-01-2015,24:00,4.28167,R,ugm-3,31.26651,R,ugm-3,37.83164,R,ugm-3,16.41463,R,ugm-3
07-01-2015,01:00,2.48421,R,ugm-3,32.56988,R,ugm-3,36.37894,R,ugm-3,10.84330,R,ugm-3
07-01-2015,02:00,3.20431,R,ugm-3,27.34253,R,ugm-3,32.25575,R,ugm-3,2.86050,R,ugm-3
07-01-2015,03:00,20.68148,R,ugm-3,25.92059,R,ugm-3,57.63175,R,ugm-3,0.34925,R,ugm-3
07-01-2015,04:00,6.22309,R,ugm-3,20.28589,R,ugm-3,29.82783,R,ugm-3,6.28646,R,ugm-3
07-01-2015,05:00,3.05589,R,ugm-3,26.12427,R,ugm-3,30.80990,R,ugm-3,11.67485,R,ugm-3
07-01-2015,06:00,9.61357,R,ugm-3,32.19742,R,ugm-3,46.93801,R,ugm-3,1.14753,R,ugm-3
07-01-2015,07:00,19.82427,R,ugm-3,34.86535,R,ugm-3,65.26215,R,ugm-3,2.24516,R,ugm-3
07-01-2015,08:00,21.01607,R,ugm-3,42.51870,R,ugm-3,74.74289,R,ugm-3,12.77248,R,ugm-3
07-01-2015,09:00,143.94746,R,ugm-3,74.89972,R,ugm-3,295.61608,R,ugm-3,3.79183,R,ugm-3
07-01-2015,10:00,142.15852,R,ugm-3,67.81629,R,ugm-3,285.78966,R,ugm-3,2.64430,R,ugm-3
07-01-2015,11:00,2.53389,R,ugm-3,9.98803,R,ugm-3,13.87328,R,ugm-3,59.12261,R,ugm-3
07-01-2015,12:00,2.08642,R,ugm-3,7.61079,R,ugm-3,10.80993,R,ugm-3,66.15746,R,ugm-3
07-01-2015,13:00,2.34742,R,ugm-3,6.63255,R,ugm-3,10.23188,R,ugm-3,68.25294,R,ugm-3
07-01-2015,14:00,1.93799,R,ugm-3,6.50872,R,ugm-3,9.48026,R,ugm-3,69.89939,R,ugm-3
07-01-2015,15:00,2.34773,R,ugm-3,6.57374,R,ugm-3,10.17354,R,ugm-3,73.14241,R,ugm-3
07-01-2015,16:00,2.04963,R,ugm-3,7.26224,R,ugm-3,10.40496,R,ugm-3,71.64563,R,ugm-3
07-01-2015,17:00,1.82605,R,ugm-3,7.66195,R,ugm-3,10.46185,R,ugm-3,70.19875,R,ugm-3
07-01-2015,18:00,1.63958,R,ugm-3,8.29595,R,ugm-3,10.80993,R,ugm-3,67.85380,R,ugm-3
07-01-2015,19:00,0.89431,R,ugm-3,4.46712,R,ugm-3,5.83838,R,ugm-3,71.49595,R,ugm-3
07-01-2015,20:00,1.49052,R,ugm-3,2.68563,R,ugm-3,4.97107,R,ugm-3,73.09251,R,ugm-3
07-01-2015,21:00,0.70816,R,ugm-3,4.34759,R,ugm-3,5.43341,R,ugm-3,70.34843,R,ugm-3
07-01-2015,22:00,1.08047,R,ugm-3,3.66148,R,ugm-3,5.31818,R,ugm-3,70.14886,R,ugm-3
07-01-2015,23:00,1.49084,R,ugm-3,3.61032,R,ugm-3,5.89624,R,ugm-3,68.65208,R,ugm-3
07-01-2015,24:00,1.08047,R,ugm-3,4.29739,R,ugm-3,5.95409,R,ugm-3,65.10971,R,ugm-3
08-01-2015,01:00,0.99451,R,ugm-3,3.40744,R,ugm-3,4.93234,R,ugm-3,66.05767,R,ugm-3
08-01-2015,02:00,1.82761,R,ugm-3,1.41716,R,ugm-3,4.21945,R,ugm-3,71.97825,R,ugm-3
08-01-2015,03:00,0.85783,R,ugm-3,2.26870,R,ugm-3,3.58403,R,ugm-3,69.94929,R,ugm-3
08-01-2015,04:00,1.26788,R,ugm-3,2.33325,R,ugm-3,4.27731,R,ugm-3,69.84950,R,ugm-3
08-01-2015,05:00,1.15625,R,ugm-3,2.56275,R,ugm-3,4.33564,R,ugm-3,70.49810,R,ugm-3
08-01-2015,06:00,1.15625,R,ugm-3,3.37222,R,ugm-3,5.14510,R,ugm-3,70.39832,R,ugm-3
08-01-2015,07:00,1.26788,R,ugm-3,5.74419,R,ugm-3,7.68825,R,ugm-3,66.95574,R,ugm-3
08-01-2015,08:00,1.82730,R,ugm-3,6.90938,R,ugm-3,9.71120,R,ugm-3,66.40692,R,ugm-3
08-01-2015,09:00,6.11645,R,ugm-3,18.36813,R,ugm-3,27.74655,R,ugm-3,60.86885,R,ugm-3
08-01-2015,10:00,5.29572,R,ugm-3,38.52923,R,ugm-3,46.64922,R,ugm-3,46.74927,R,ugm-3
08-01-2015,11:00,10.14398,R,ugm-3,53.81249,R,ugm-3,69.36638,R,ugm-3,28.18926,R,ugm-3
08-01-2015,12:00,4.02784,R,ugm-3,31.33966,R,ugm-3,37.51560,R,ugm-3,44.75357,R,ugm-3
08-01-2015,13:00,4.40079,R,ugm-3,25.27608,R,ugm-3,32.02386,R,ugm-3,58.82326,R,ugm-3
08-01-2015,14:00,8.12990,R,ugm-3,38.17207,R,ugm-3,50.63774,R,ugm-3,39.01594,R,ugm-3
08-01-2015,15:00,7.98085,R,ugm-3,31.28993,R,ugm-3,43.52707,R,ugm-3,49.19401,R,ugm-3
08-01-2015,16:00,7.12333,R,ugm-3,33.41472,R,ugm-3,44.33701,R,ugm-3,45.20261,R,ugm-3
08-01-2015,17:00,6.41486,R,ugm-3,34.50054,R,ugm-3,44.33653,R,ugm-3,38.31744,R,ugm-3
08-01-2015,18:00,3.69201,R,ugm-3,22.14388,R,ugm-3,27.80488,R,ugm-3,48.74497,R,ugm-3
08-01-2015,19:00,2.42413,R,ugm-3,15.12788,R,ugm-3,18.84482,R,ugm-3,53.48476,R,ugm-3
08-01-2015,20:00,2.05119,R,ugm-3,13.73366,R,ugm-3,16.87877,R,ugm-3,52.63659,R,ugm-3
08-01-2015,21:00,1.37983,R,ugm-3,8.00047,R,ugm-3,10.11617,R,ugm-3,60.36993,R,ugm-3
08-01-2015,22:00,1.41725,R,ugm-3,4.93664,R,ugm-3,7.10972,R,ugm-3,66.75617,R,ugm-3
08-01-2015,23:00,1.08141,R,ugm-3,2.61965,R,ugm-3,4.27778,R,ugm-3,69.89939,R,ugm-3
08-01-2015,24:00,0.85783,R,ugm-3,0.93904,R,ugm-3,2.25436,R,ugm-3,75.58714,R,ugm-3
09-01-2015,01:00,1.44230,R,ugm-3,0.71719,R,ugm-3,2.92868,R,ugm-3,78.43101,R,ugm-3
09-01-2015,02:00,1.30530,R,ugm-3,0.77313,R,ugm-3,2.77456,R,ugm-3,85.14987,R,ugm-3
09-01-2015,03:00,0.59652,R,ugm-3,0.81903,R,ugm-3,1.73368,R,ugm-3,84.11876,R,ugm-3
09-01-2015,04:00,1.00720,R,ugm-3,-0.09945,R,ugm-3,1.44489,R,ugm-3,84.06886,R,ugm-3
09-01-2015,05:00,0.82072,R,ugm-3,0.88023,R,ugm-3,2.13865,R,ugm-3,81.92349,R,ugm-3
09-01-2015,06:00,1.34241,R,ugm-3,1.46784,R,ugm-3,3.52617,R,ugm-3,80.92564,R,ugm-3
09-01-2015,07:00,1.45435,R,ugm-3,2.33660,R,ugm-3,4.56657,R,ugm-3,79.57854,R,ugm-3
09-01-2015,08:00,2.34960,R,ugm-3,7.49604,R,ugm-3,11.09872,R,ugm-3,73.54155,R,ugm-3
09-01-2015,09:00,5.29604,R,ugm-3,12.45803,R,ugm-3,20.57850,R,ugm-3,66.80606,R,ugm-3
09-01-2015,10:00,2.42444,R,ugm-3,9.46209,R,ugm-3,13.17952,R,ugm-3,65.45896,R,ugm-3
09-01-2015,11:00,2.27508,R,ugm-3,8.93998,R,ugm-3,12.42838,R,ugm-3,64.81036,R,ugm-3
09-01-2015,12:00,2.46155,R,ugm-3,6.16829,R,ugm-3,9.94261,R,ugm-3,65.45896,R,ugm-3
09-01-2015,13:00,2.64771,R,ugm-3,8.36814,R,ugm-3,12.42790,R,ugm-3,60.41982,R,ugm-3
09-01-2015,14:00,2.16344,R,ugm-3,7.43437,R,ugm-3,10.75160,R,ugm-3,60.96864,R,ugm-3
09-01-2015,15:00,2.53607,R,ugm-3,7.15227,R,ugm-3,11.04086,R,ugm-3,63.96219,R,ugm-3
09-01-2015,16:00,2.05087,R,ugm-3,5.93066,R,ugm-3,9.07529,R,ugm-3,69.20090,R,ugm-3
09-01-2015,17:00,2.34991,R,ugm-3,4.49007,R,ugm-3,8.09322,R,ugm-3,70.74757,R,ugm-3
09-01-2015,18:00,1.90182,R,ugm-3,4.42553,R,ugm-3,7.34161,R,ugm-3,64.36133,R,ugm-3
09-01-2015,19:00,1.45466,R,ugm-3,4.18551,R,ugm-3,6.41596,R,ugm-3,61.56735,R,ugm-3
09-01-2015,20:00,1.64114,R,ugm-3,5.22925,R,ugm-3,7.74563,R,ugm-3,58.22455,R,ugm-3
09-01-2015,21:00,1.71566,R,ugm-3,2.22472,R,ugm-3,4.85536,R,ugm-3,57.47616,R,ugm-3
09-01-2015,22:00,1.26788,R,ugm-3,1.98661,R,ugm-3,3.93067,R,ugm-3,59.37208,R,ugm-3
09-01-2015,23:00,1.30530,R,ugm-3,1.17810,R,ugm-3,3.17953,R,ugm-3,60.56950,R,ugm-3
09-01-2015,24:00,1.30530,R,ugm-3,1.17810,R,ugm-3,3.17953,R,ugm-3,61.16821,R,ugm-3
10-01-2015,01:00,1.59239,R,ugm-3,0.56674,R,ugm-3,3.00836,R,ugm-3,62.73150,R,ugm-3
10-01-2015,02:00,1.60496,R,ugm-3,0.20033,R,ugm-3,2.66124,R,ugm-3,62.66498,R,ugm-3
10-01-2015,03:00,0.93298,R,ugm-3,-1.02558,R,ugm-3,0.40497,R,ugm-3,63.61294,R,ugm-3
10-01-2015,04:00,1.60496,R,ugm-3,-1.07243,R,ugm-3,1.38848,R,ugm-3,68.00348,R,ugm-3
10-01-2015,05:00,0.97040,R,ugm-3,-0.79369,R,ugm-3,0.69424,R,ugm-3,72.74327,R,ugm-3
10-01-2015,06:00,0.82104,R,ugm-3,-0.56467,R,ugm-3,0.69424,R,ugm-3,73.24219,R,ugm-3
10-01-2015,07:00,1.34365,R,ugm-3,0.31174,R,ugm-3,2.37198,R,ugm-3,71.89509,R,ugm-3
10-01-2015,08:00,0.44747,R,ugm-3,1.51231,R,ugm-3,2.19842,R,ugm-3,71.79531,R,ugm-3
10-01-2015,09:00,1.86658,R,ugm-3,1.82405,R,ugm-3,4.68610,R,ugm-3,72.09466,R,ugm-3
10-01-2015,10:00,1.56786,R,ugm-3,1.93497,R,ugm-3,4.33898,R,ugm-3,71.74542,R,ugm-3
10-01-2015,11:00,1.45560,R,ugm-3,2.33851,R,ugm-3,4.57040,R,ugm-3,70.84735,R,ugm-3
10-01-2015,12:00,2.16469,R,ugm-3,4.02820,R,ugm-3,7.34735,R,ugm-3,68.85165,R,ugm-3
10-01-2015,13:00,3.88160,R,ugm-3,13.37124,R,ugm-3,19.32294,R,ugm-3,67.50455,R,ugm-3
10-01-2015,14:00,3.65771,R,ugm-3,13.65668,R,ugm-3,19.26509,R,ugm-3,68.30283,R,ugm-3
10-01-2015,15:00,2.12758,R,ugm-3,7.78770,R,ugm-3,11.04995,R,ugm-3,70.09896,R,ugm-3
10-01-2015,16:00,2.20242,R,ugm-3,7.90436,R,ugm-3,11.28136,R,ugm-3,73.54155,R,ugm-3
10-01-2015,17:00,2.27695,R,ugm-3,14.79032,R,ugm-3,18.28159,R,ugm-3,66.85595,R,ugm-3
10-01-2015,18:00,2.12727,R,ugm-3,19.30095,R,ugm-3,22.56272,R,ugm-3,58.42412,R,ugm-3
10-01-2015,19:00,2.50084,R,ugm-3,17.16612,R,ugm-3,21.00068,R,ugm-3,56.67788,R,ugm-3
10-01-2015,20:00,1.75464,R,ugm-3,13.50847,R,ugm-3,16.19888,R,ugm-3,60.22025,R,ugm-3
10-01-2015,21:00,1.82885,R,ugm-3,8.88213,R,ugm-3,11.68633,R,ugm-3,60.27014,R,ugm-3
10-01-2015,22:00,1.64207,R,ugm-3,5.75519,R,ugm-3,8.27300,R,ugm-3,62.81466,R,ugm-3
10-01-2015,23:00,1.30624,R,ugm-3,4.65024,R,ugm-3,6.65311,R,ugm-3,62.91444,R,ugm-3
10-01-2015,24:00,1.04524,R,ugm-3,7.48027,R,ugm-3,9.08294,R,ugm-3,58.87315,R,ugm-3
11-01-2015,01:00,1.74165,R,ugm-3,8.59159,R,ugm-3,11.26208,R,ugm-3,55.21437,R,ugm-3
11-01-2015,02:00,1.56754,R,ugm-3,5.92732,R,ugm-3,8.33085,R,ugm-3,60.20362,R,ugm-3
11-01-2015,03:00,0.97009,R,ugm-3,4.52928,R,ugm-3,6.01673,R,ugm-3,63.06412,R,ugm-3
11-01-2015,04:00,0.97040,R,ugm-3,1.52044,R,ugm-3,3.00836,R,ugm-3,65.60864,R,ugm-3
11-01-2015,05:00,1.00813,R,ugm-3,1.69400,R,ugm-3,3.23978,R,ugm-3,68.40262,R,ugm-3
11-01-2015,06:00,0.85845,R,ugm-3,1.28711,R,ugm-3,2.60339,R,ugm-3,69.99918,R,ugm-3
11-01-2015,07:00,0.89587,R,ugm-3,1.92398,R,ugm-3,3.29763,R,ugm-3,71.59574,R,ugm-3
11-01-2015,08:00,1.15687,R,ugm-3,3.14367,R,ugm-3,4.91752,R,ugm-3,71.49595,R,ugm-3
11-01-2015,09:00,1.67980,R,ugm-3,6.10231,R,ugm-3,8.67797,R,ugm-3,66.75617,R,ugm-3
11-01-2015,10:00,1.53044,R,ugm-3,5.63709,R,ugm-3,7.98373,R,ugm-3,69.00133,R,ugm-3
11-01-2015,11:00,2.38889,R,ugm-3,5.82500,R,ugm-3,9.48791,R,ugm-3,67.10541,R,ugm-3
11-01-2015,12:00,2.64989,R,ugm-3,5.88763,R,ugm-3,9.95074,R,ugm-3,68.20305,R,ugm-3
11-01-2015,13:00,2.16469,R,ugm-3,6.40018,R,ugm-3,9.71933,R,ugm-3,71.24649,R,ugm-3
11-01-2015,14:00,2.20242,R,ugm-3,6.22662,R,ugm-3,9.60362,R,ugm-3,68.60219,R,ugm-3
11-01-2015,15:00,1.86627,R,ugm-3,7.03131,R,ugm-3,9.89288,R,ugm-3,69.40047,R,ugm-3
11-01-2015,16:00,2.20211,R,ugm-3,7.84699,R,ugm-3,11.22351,R,ugm-3,67.75402,R,ugm-3
11-01-2015,17:00,1.38076,R,ugm-3,6.44513,R,ugm-3,8.56226,R,ugm-3,66.85595,R,ugm-3
11-01-2015,18:00,1.23171,R,ugm-3,4.59096,R,ugm-3,6.47955,R,ugm-3,68.95144,R,ugm-3
11-01-2015,19:00,1.64238,R,ugm-3,3.15132,R,ugm-3,5.66961,R,ugm-3,70.09896,R,ugm-3
11-01-2015,20:00,0.63425,R,ugm-3,2.03586,R,ugm-3,3.00836,R,ugm-3,76.23574,R,ugm-3
11-01-2015,21:00,0.78393,R,ugm-3,3.13698,R,ugm-3,4.33898,R,ugm-3,76.98413,R,ugm-3
11-01-2015,22:00,1.15687,R,ugm-3,0.77169,R,ugm-3,2.54554,R,ugm-3,79.22929,R,ugm-3
11-01-2015,23:00,1.00751,R,ugm-3,0.19077,R,ugm-3,1.73559,R,ugm-3,80.52650,R,ugm-3
11-01-2015,24:00,1.12008,R,ugm-3,-0.38680,R,ugm-3,1.33062,R,ugm-3,82.87144,R,ugm-3
12-01-2015,01:00,0.89681,R,ugm-3,-0.29389,R,ugm-3,1.08120,R,ugm-3,82.28936,R,ugm-3
12-01-2015,02:00,1.38232,R,ugm-3,-0.61439,R,ugm-3,1.50514,R,ugm-3,85.28291,R,ugm-3
12-01-2015,03:00,0.44809,R,ugm-3,-0.45517,R,ugm-3,0.23189,R,ugm-3,85.86499,R,ugm-3
12-01-2015,04:00,1.23296,R,ugm-3,-0.15348,R,ugm-3,1.73703,R,ugm-3,86.41381,R,ugm-3
12-01-2015,05:00,1.30748,R,ugm-3,0.65838,R,ugm-3,2.66316,R,ugm-3,86.11446,R,ugm-3
12-01-2015,06:00,1.45685,R,ugm-3,0.66125,R,ugm-3,2.89505,R,ugm-3,86.51360,R,ugm-3
12-01-2015,07:00,1.30779,R,ugm-3,1.52665,R,ugm-3,3.53191,R,ugm-3,87.41166,R,ugm-3
12-01-2015,08:00,1.56910,R,ugm-3,3.73129,R,ugm-3,6.13721,R,ugm-3,87.66112,R,ugm-3
12-01-2015,09:00,2.68949,R,ugm-3,6.76164,R,ugm-3,10.88547,R,ugm-3,84.81725,R,ugm-3
12-01-2015,10:00,1.56879,R,ugm-3,4.77456,R,ugm-3,7.18000,R,ugm-3,86.76306,R,ugm-3
12-01-2015,11:00,1.60652,R,ugm-3,3.32727,R,ugm-3,5.79057,R,ugm-3,85.31618,R,ugm-3
12-01-2015,12:00,1.49427,R,ugm-3,4.13626,R,ugm-3,6.42743,R,ugm-3,82.27273,R,ugm-3
12-01-2015,13:00,1.38201,R,ugm-3,5.23403,R,ugm-3,7.35308,R,ugm-3,78.43101,R,ugm-3
12-01-2015,14:00,1.45685,R,ugm-3,4.25149,R,ugm-3,6.48529,R,ugm-3,77.98198,R,ugm-3
12-01-2015,15:00,2.09203,R,ugm-3,5.53525,R,ugm-3,8.74299,R,ugm-3,74.48950,R,ugm-3
12-01-2015,16:00,2.39076,R,ugm-3,7.45158,R,ugm-3,11.11736,R,ugm-3,70.09896,R,ugm-3
12-01-2015,17:00,2.27882,R,ugm-3,8.08605,R,ugm-3,11.58019,R,ugm-3,67.92032,R,ugm-3
12-01-2015,18:00,1.79299,R,ugm-3,5.93544,R,ugm-3,8.68466,R,ugm-3,69.69982,R,ugm-3
12-01-2015,19:00,1.12070,R,ugm-3,5.11403,R,ugm-3,6.83241,R,ugm-3,76.13596,R,ugm-3
12-01-2015,20:00,1.56879,R,ugm-3,2.92182,R,ugm-3,5.32727,R,ugm-3,76.23574,R,ugm-3
12-01-2015,21:00,0.48582,R,ugm-3,2.14965,R,ugm-3,2.89457,R,ugm-3,77.98198,R,ugm-3